STARLINK-32312, 61711

Orbit data source: Space-Track

STARLINK-32312, 61711 is a payload satellite owned by SpaceX/Seattle (US) in LEO that was launched on Wed, 30 Oct 2024 UTC via an FALCON 9 launch vehicle from the Air Force Eastern Test Range (AFETR). Payload-class satellites include a variety of spacecraft equipped with specific instruments for various scientific and technological missions. These include communications satellites like Starlink; space stations such as the ISS; scientific satellites like the Hubble; Earth observation satellites from companies like Planet Labs, Umbra, and HawkEye 360; GPS; miniature CubeSats for education and research; and military/defense satellites.

Loading next visibility...
Identifier
61711, 2024-196E
Orbit
LEO
Last TLE update
10 hours ago
Origin
Manufacturer
SpaceX/Seattle
Mission
Operational Commercial Communications
Bus & Motor
STARLINK V2M, Unknown motor
Mass
730 kg wet, ~700 kg dry
Launch date (UTC)
2024-10-30 (6 months ago)
Launch vehicle
FALCON 9
Launch site
Air Force Eastern Test Range (AFETR)
Object type
Payload
Rocket body
Debris
Shape & HBR
Box + 2 Pan, 29 m
Radar Cross Section
36.964 m², Large (>1 m²)

Expand to show TLE details & history

TLE from 10 hours ago
0 STARLINK-32312
1 61711U 24196E   25129.27964950 -.00000462  00000-0 -34903-5 0  9997
2 61711  53.1611  75.0322 0001163  77.3478 282.7652 15.30195081 30571
Epoch: 2025-05-09T06:42Z
Definitive object data (Epoch: 2025-05-09T06:42:41.716Z)
Latitude
-0.0001°
Longitude
107.02024°
Altitude
475.954 km
Speed
7.629 km/s
True Right ascension
05h 00m 07s
True Declination
0° 00' 00"
Sunlit
Object was in daylight at TLE epoch
Visualization TLE readout
Latitude
28.56929°
Longitude
129.10229°
Altitude
476.113 km
Speed
7.632 km/s
Apparent Right ascension
09h 04m 20s
Apparent Declination
-5° 56' 43"
Sunlit
Object is in daylight
Visualization observer readout
Local Sidereal Time
00:26:59
Azimuth
67.089° ENE
Elevation
-33.37°
Doppler factor
1
Orbital elements
Apogee altitude
476.283 km
Perigee altitude
474.689 km
Semi-major axis
6,853.623 km
Eccentricity
0.0001163
Inclination
53.1611°
RAAN
75.0322°
Arg. of periapsis
77.3478°
True anomaly
282.7522°
Mean anomaly
282.7652°
Eccentric anomaly
282.7587°
Mean motion
3.82528 °/min
BSTAR
-0.0000034903
Orbital period
94.11 mins
Loading maneuver chart data...
Loading SW <> Apogee altitude chart data...
Loading historical data...
Loading historical data...
Loading historical data...
Loading historical data...
Loading historical data...
Loading historical data...
Loading historical data...

STARLINK-32312 Visibility forecast

Observer location: undefined°, undefined°

Span
Click to sort rows by Start time (UTC) header in descending order
Start Az.
Max El. time (UTC)
Max El. Az.
Max El.
End time (UTC)
End Az.
6 mins2025-05-09 22:32:32.513Z203.296° SW2025-05-09 22:35:32.513Z146.691° SSE32.414°2025-05-09 22:38:32.513Z68.016° E
4 mins2025-05-10 00:12:32.513Z296.127° NW2025-05-10 00:13:32.513Z322.688° NNW24.858°2025-05-10 00:16:32.513Z27.719° NE
5 mins2025-05-10 05:08:32.513Z333.656° NNW2025-05-10 05:10:32.513Z24.837° NE31.133°2025-05-10 05:13:32.513Z98.081° ESE
5 mins2025-05-10 06:46:32.513Z274.768° WNW2025-05-10 06:48:32.513Z228.414° WSW23.895°2025-05-10 06:51:32.513Z171.715° S
|